FW2916 Weather Reports


Display with metric or nautical units.
time (UTC)temp
F
wind
direction
speed
MPH
gust
MPH
rain 1hr
in
rain 24hr
in
rain mn
in
humidity
%
barometer
mb
20260906054547 78 0 0.0 0.0 0.00 0.00 0.00 82 1014.2
20260906053044 78 0 0.0 0.0 0.00 0.00 0.00 80 1014.4
20260906051552 79 0 0.0 0.0 0.00 0.00 0.00 79 1014.2
20260906050109 79 0 0.0 0.0 0.00 0.00 0.00 79 1014.2
20260906044542 80 0 0.0 0.0 0.00 0.00 0.00 78 1014.2
20260906043051 80 0 0.0 0.0 0.00 0.00 0.00 80 1014.2
20260906041550 80 0 0.0 0.0 0.00 0.00 0.00 79 1014.1
20260906040048 81 0 0.0 0.0 0.00 0.00 0.00 78 1014.1
20260906034545 82 0 0.0 0.0 0.00 0.00 0.00 75 1013.9
20260906033105 83 0 0.0 0.0 0.00 0.00 0.00 74 1013.7
20260906031548 83 0 0.0 0.0 0.00 0.00 0.00 73 1013.8
20260906030043 84 0 0.0 0.0 0.00 0.00 0.00 74 1013.5
20260906024602 84 0 0.0 0.0 0.00 0.00 0.00 74 1013.4
20260906023048 84 0 0.0 0.0 0.00 0.00 0.00 73 1013.1
20260906021555 84 0 0.0 0.0 0.00 0.00 0.00 72 1013.1
20260906020055 86 0 0.0 0.0 0.00 0.00 0.00 70 1012.8
20260906014555 86 0 0.0 0.0 0.00 0.00 0.00 69 1012.5
20260906013043 87 0 0.0 0.0 0.00 0.00 0.00 66 1012.5
20260906011542 88 0 0.0 0.0 0.00 0.00 0.00 65 1012.4
20260906010054 90 0 0.0 0.0 0.00 0.00 0.00 63 1012.3
20260906004607 91 0 0.0 0.0 0.00 0.00 0.00 61 1012.2
20260906003043 92 0 0.0 3.0 0.00 0.00 0.00 59 1012.3
20260906001542 93 14 0.0 4.0 0.00 0.00 0.00 57 1012.3
20260906000053 95 0 0.0 3.0 0.00 0.00 0.00 56 1012.3
20260905234559 96 96 0.0 4.0 0.00 0.00 0.00 53 1012.1
20260905233044 98 141 0.0 2.0 0.00 0.00 0.00 48 1012.2
20260905231555 99 0 0.0 3.0 0.00 0.00 0.00 44 1012.1
20260905230115 101 0 0.0 4.0 0.00 0.00 0.00 43 1012.0
20260905224542 101 224 0.0 2.0 0.00 0.00 0.00 40 1012.1
20260905223052 101 0 0.0 3.0 0.00 0.00 0.00 42 1012.1
20260905221547 99 155 0.0 1.0 0.00 0.00 0.00 44 1012.2
20260905220044 100 0 0.0 2.0 0.00 0.00 0.00 44 1012.4
20260905214553 102 210 0.0 2.0 0.00 0.00 0.00 41 1012.5
20260905213052 101 122 0.0 4.0 0.00 0.00 0.00 43 1012.7
20260905211554 101 98 0.0 3.0 0.00 0.00 0.00 42 1012.7
20260905210047 103 218 0.0 4.0 0.00 0.00 0.00 42 1012.8
20260905204552 103 238 1.0 4.0 0.00 0.00 0.00 41 1013.0
20260905203055 103 176 0.0 3.0 0.00 0.00 0.00 42 1013.2
20260905201548 102 0 0.0 3.0 0.00 0.00 0.00 43 1013.5
20260905200042 102 0 0.0 3.0 0.00 0.00 0.00 46 1013.7
20260905194552 101 222 1.0 5.0 0.00 0.00 0.00 45 1013.8
20260905193104 101 94 1.0 7.0 0.00 0.00 0.00 45 1013.8
20260905191547 99 0 0.0 3.0 0.00 0.00 0.00 46 1014.0
20260905190044 99 39 1.0 3.0 0.00 0.00 0.00 50 1014.3
20260905184602 98 89 0.0 2.0 0.00 0.00 0.00 47 1014.5
20260905183056 101 69 1.0 5.0 0.00 0.00 0.00 44 1014.6
20260905181547 100 129 2.0 4.0 0.00 0.00 0.00 46 1014.8
20260905180043 101 0 1.0 7.0 0.00 0.00 0.00 46 1015.0
20260905174541 100 0 0.0 2.0 0.00 0.00 0.00 50 1015.2
20260905173048 100 143 0.0 3.0 0.00 0.00 0.00 49 1015.4
20260905171548 99 56 0.0 6.0 0.00 0.00 0.00 50 1015.6
20260905170048 98 0 0.0 3.0 0.00 0.00 0.00 52 1015.7
20260905164543 98 226 1.0 3.0 0.00 0.00 0.00 51 1015.8
20260905163054 97 234 1.0 3.0 0.00 0.00 0.00 54 1015.8
20260905161548 96 98 1.0 4.0 0.00 0.00 0.00 55 1015.7
20260905160046 95 250 0.0 3.0 0.00 0.00 0.00 55 1015.7
20260905154552 95 0 0.0 0.0 0.00 0.00 0.00 57 1015.6
20260905153127 94 0 0.0 1.0 0.00 0.00 0.00 58 1015.4
20260905151548 93 0 0.0 2.0 0.00 0.00 0.00 61 1015.3
20260905150042 92 0 1.0 3.0 0.00 0.00 0.00 61 1015.3
20260905144552 91 0 0.0 1.0 0.00 0.00 0.00 64 1015.2
20260905143052 89 0 0.0 2.0 0.00 0.00 0.00 67 1015.2
20260905141547 87 258 0.0 2.0 0.00 0.00 0.00 71 1015.1
20260905140041 86 0 0.0 0.0 0.00 0.00 0.00 72 1015.2
20260905134553 83 0 0.0 0.0 0.00 0.00 0.00 74 1015.0
20260905133051 79 0 0.0 0.0 0.00 0.00 0.00 81 1014.9
20260905131547 76 0 0.0 0.0 0.00 0.00 0.00 88 1014.6
20260905130042 74 0 0.0 0.0 0.00 0.00 0.00 91 1014.6
20260905124559 73 0 0.0 0.0 0.00 0.00 0.00 93 1014.4
20260905123050 72 0 0.0 0.0 0.00 0.00 0.00 93 1014.4
20260905121543 71 0 0.0 0.0 0.00 0.00 0.00 92 1014.2
20260905120052 71 0 0.0 0.0 0.00 0.00 0.00 91 1014.1
20260905114547 72 0 0.0 0.0 0.00 0.00 0.00 90 1014.0
20260905113101 73 0 0.0 0.0 0.00 0.00 0.00 89 1013.9
20260905111542 73 0 0.0 0.0 0.00 0.00 0.00 90 1013.8
20260905110040 72 0 0.0 0.0 0.00 0.00 0.00 92 1013.8
20260905104548 71 0 0.0 0.0 0.00 0.00 0.00 96 1013.5
20260905103048 71 0 0.0 0.0 0.00 0.00 0.00 95 1013.4
20260905101542 71 0 0.0 0.0 0.00 0.00 0.00 95 1013.6
20260905100100 71 0 0.0 0.0 0.00 0.00 0.00 95 1013.4
20260905094543 71 0 0.0 0.0 0.00 0.00 0.00 95 1013.5
20260905093053 71 0 0.0 0.0 0.00 0.00 0.00 94 1013.5
20260905091542 71 0 0.0 0.0 0.00 0.00 0.00 94 1013.5
20260905090051 72 0 0.0 0.0 0.00 0.00 0.00 93 1013.4
20260905084551 72 0 0.0 0.0 0.00 0.00 0.00 93 1013.4
20260905083046 72 0 0.0 0.0 0.00 0.00 0.00 93 1013.5
20260905081544 72 0 0.0 0.0 0.00 0.00 0.00 93 1013.4
20260905080046 73 0 0.0 0.0 0.00 0.00 0.00 92 1013.4
20260905074548 73 0 0.0 0.0 0.00 0.00 0.00 92 1013.3
20260905073043 73 0 0.0 0.0 0.00 0.00 0.00 92 1013.4
20260905071542 74 0 0.0 0.0 0.00 0.00 0.00 92 1013.4
20260905070041 74 0 0.0 0.0 0.00 0.00 0.00 92 1013.5
20260905064552 75 0 0.0 0.0 0.00 0.00 0.00 92 1013.5
20260905063042 75 0 0.0 0.0 0.00 0.00 0.00 93 1013.7
20260905061547 75 0 0.0 0.0 0.00 0.00 0.00 93 1013.6
20260905060058 75 0 0.0 0.0 0.00 0.00 0.00 91 1013.8